Volver al catálogo

SPACEMOBILE-006

ActivoComunicacionesVLEO
NORAD 67232·PAYLOAD·🇺🇸 United States

Lanzado Dec 24, 2025 desde Satish Dhawan Space Centre

Loading…

Próximos Pases (próximas 24 horas)

TLE

ActualizadoSource: CelesTrak SupGP

Época: Sep 14, 2026, 09:43 UTC

1 67232C 25309A   26257.40523490  .00005690  00000+0  26836-3 0  2572
2 67232  52.9928 282.8704 0012016  51.8514 283.2860 15.18883205    13

Sigue SPACEMOBILE-006 en tiempo real con AllMySat

Download on the App Store